GW3896 Weather Reports


Display with metric or nautical units.
time (UTC)temp
F
wind
direction
speed
MPH
gust
MPH
rain 1hr
in
rain 24hr
in
rain mn
in
humidity
%
barometer
mb
20260510204350 69 16 2.0 3.0 0.00 0.05 0.05 58 1015.5
20260510203846 69 336 2.0 3.0 0.00 0.05 0.05 58 1015.8
20260510203345 69 238 1.0 1.0 0.00 0.05 0.05 59 1015.6
20260510202839 70 187 0.0 1.0 0.00 0.05 0.05 57 1015.7
20260510202335 70 247 0.0 0.0 0.00 0.05 0.05 57 1015.6
20260510201832 72 230 0.0 0.0 0.00 0.05 0.05 57 1015.4
20260510201329 73 261 1.0 2.0 0.00 0.05 0.05 54 1015.5
20260510200826 69 99 3.0 3.0 0.00 0.05 0.05 56 1015.6
20260510200324 71 250 0.0 0.0 0.00 0.05 0.05 56 1015.7
20260510195819 71 260 4.0 5.0 0.00 0.05 0.05 57 1015.8
20260510195316 71 138 3.0 5.0 0.00 0.05 0.05 58 1015.8
20260510194816 71 141 2.0 2.0 0.00 0.05 0.05 57 1015.7
20260510194313 71 160 1.0 1.0 0.00 0.05 0.05 58 1016.1
20260510193809 71 259 2.0 2.0 0.00 0.05 0.05 57 1015.9
20260510193304 71 276 2.0 2.0 0.00 0.05 0.05 59 1016.1
20260510192800 70 239 3.0 3.0 0.00 0.05 0.05 58 1016.1
20260510192255 71 57 1.0 1.0 0.00 0.05 0.05 59 1016.1
20260510191751 69 52 5.0 6.0 0.00 0.05 0.05 61 1016.1
20260510191247 68 198 1.0 1.0 0.00 0.05 0.05 61 1016.0
20260510190746 67 315 1.0 1.0 0.00 0.05 0.05 64 1016.1
20260510190242 68 52 5.0 7.0 0.00 0.05 0.05 63 1016.2
20260510185739 68 292 2.0 2.0 0.00 0.05 0.05 63 1016.4
20260510185237 68 256 1.0 1.0 0.00 0.05 0.05 65 1016.2
20260510184733 67 274 1.0 2.0 0.00 0.05 0.05 66 1016.1
20260510184230 68 272 3.0 3.0 0.00 0.05 0.05 63 1016.4
20260510183725 67 328 2.0 3.0 0.00 0.05 0.05 65 1016.5
20260510183220 66 14 2.0 2.0 0.00 0.05 0.05 69 1016.3
20260510182717 67 37 5.0 7.0 0.00 0.05 0.05 70 1016.1
20260510182213 66 256 1.0 2.0 0.00 0.05 0.05 69 1015.8
20260510181710 66 345 3.0 5.0 0.00 0.05 0.05 70 1016.0
20260510181207 67 54 3.0 5.0 0.00 0.05 0.05 70 1016.1
20260510180702 66 118 3.0 3.0 0.00 0.05 0.05 71 1015.8
20260510180200 66 32 3.0 3.0 0.00 0.05 0.05 71 1015.7
20260510175656 66 342 1.0 2.0 0.00 0.05 0.05 69 1015.9
20260510175152 65 348 2.0 3.0 0.00 0.05 0.05 73 1016.0
20260510174649 66 294 3.0 3.0 0.00 0.05 0.05 71 1016.0
20260510174147 65 45 3.0 3.0 0.00 0.05 0.05 75 1016.0
20260510173643 65 69 3.0 5.0 0.00 0.05 0.05 72 1016.0
20260510173139 65 37 1.0 2.0 0.00 0.05 0.05 73 1015.9
20260510172634 65 293 2.0 2.0 0.00 0.05 0.05 75 1015.6
20260510172131 64 26 1.0 2.0 0.00 0.05 0.05 78 1016.0
20260510171628 64 295 1.0 2.0 0.00 0.05 0.05 81 1015.9
20260510171126 65 29 3.0 5.0 0.00 0.05 0.05 80 1015.9
20260510170621 65 47 3.0 5.0 0.00 0.05 0.05 81 1015.9
20260510170118 64 358 1.0 2.0 0.00 0.05 0.05 82 1015.9
20260510165614 64 308 1.0 1.0 0.00 0.05 0.05 83 1015.8
20260510165110 64 50 2.0 2.0 0.00 0.05 0.05 83 1016.1
20260510164608 64 320 0.0 1.0 0.00 0.05 0.05 84 1016.1
20260510164104 64 287 3.0 5.0 0.00 0.05 0.05 82 1016.0
20260510163559 64 51 3.0 6.0 0.00 0.05 0.05 84 1016.0
20260510163056 63 251 1.0 1.0 0.00 0.05 0.05 86 1015.9
20260510162550 63 319 3.0 3.0 0.00 0.05 0.05 87 1015.9
20260510162047 62 282 2.0 2.0 0.00 0.05 0.05 89 1015.9
20260510161543 62 5 1.0 1.0 0.00 0.05 0.05 88 1015.9
20260510161040 62 270 0.0 0.0 0.00 0.05 0.05 89 1015.7
20260510160538 62 270 0.0 0.0 0.00 0.05 0.05 88 1015.4
20260510160037 62 102 1.0 1.0 0.00 0.05 0.05 88 1015.6
20260510155534 61 268 1.0 1.0 0.00 0.05 0.05 87 1015.4
20260510155030 62 305 1.0 1.0 0.00 0.05 0.05 89 1015.4
20260510154526 63 330 2.0 2.0 0.00 0.05 0.05 90 1015.3
20260510154021 61 282 1.0 1.0 0.00 0.05 0.05 91 1015.3
20260510153516 61 44 1.0 1.0 0.00 0.05 0.05 92 1015.0
20260510153013 61 36 1.0 1.0 0.00 0.05 0.05 95 1015.2
20260510152510 61 358 2.0 2.0 0.00 0.05 0.05 96 1015.2
20260510152000 60 264 0.0 0.0 0.00 0.05 0.05 97 1015.3
20260510151457 60 265 0.0 1.0 0.00 0.05 0.05 97 1015.2
20260510150954 60 310 0.0 0.0 0.00 0.05 0.05 97 1015.4
20260510150449 60 314 0.0 0.0 0.00 0.05 0.05 98 1015.2
20260510145945 60 314 0.0 0.0 0.00 0.05 0.05 97 1015.0
20260510145442 60 313 1.0 1.0 0.07 0.05 0.05 97 1015.0
20260510144939 60 314 0.0 0.0 0.07 0.05 0.05 97 1014.9
20260510144436 60 315 0.0 0.0 0.00 0.04 0.04 96 1014.7
20260510143931 60 308 0.0 0.0 0.05 0.04 0.04 95 1014.7
20260510143426 60 324 0.0 0.0 0.05 0.04 0.04 94 1014.5
20260510142924 60 273 0.0 0.0 0.05 0.04 0.04 93 1014.9
20260510142421 60 315 0.0 0.0 0.00 0.03 0.03 92 1014.9
20260510141917 61 243 0.0 0.0 0.19 0.03 0.03 91 1015.2
20260510141414 61 266 0.0 0.0 0.19 0.03 0.03 89 1014.8
20260510140912 62 316 1.0 2.0 0.00 0.00 0.00 87 1015.4
20260510140408 62 264 6.0 7.0 0.00 0.00 0.00 83 1014.8
20260510135907 62 241 4.0 5.0 0.00 0.00 0.00 82 1014.5
20260510135403 63 276 2.0 2.0 0.00 0.00 0.00 82 1014.3
20260510134900 64 233 3.0 5.0 0.00 0.00 0.00 80 1014.4
20260510134357 64 260 6.0 7.0 0.00 0.00 0.00 81 1014.3
20260510133853 64 244 5.0 6.0 0.00 0.00 0.00 81 1014.5
20260510133349 62 249 2.0 2.0 0.00 0.00 0.00 83 1014.6
20260510132845 62 249 4.0 5.0 0.00 0.00 0.00 83 1014.7
20260510132343 62 245 5.0 7.0 0.00 0.00 0.00 84 1014.4
20260510131840 61 209 1.0 1.0 0.00 0.00 0.00 85 1014.2
20260510131337 61 261 1.0 2.0 0.00 0.00 0.00 86 1014.2
20260510130834 61 245 1.0 1.0 0.00 0.00 0.00 86 1014.1
20260510130331 60 248 4.0 5.0 0.00 0.00 0.00 86 1014.3
20260510125827 60 305 4.0 5.0 0.00 0.00 0.00 86 1014.1
20260510125323 60 265 1.0 2.0 0.00 0.00 0.00 87 1014.1
20260510124820 60 243 1.0 1.0 0.00 0.00 0.00 88 1014.1
20260510124318 60 262 3.0 3.0 0.00 0.00 0.00 88 1014.0
20260510123813 60 268 1.0 1.0 0.00 0.00 0.00 88 1013.9
20260510123309 60 240 1.0 1.0 0.00 0.00 0.00 88 1013.9
20260510122805 60 249 0.0 1.0 0.00 0.00 0.00 88 1013.8
20260510122301 60 263 1.0 2.0 0.00 0.00 0.00 88 1014.0
20260510121758 60 271 1.0 1.0 0.00 0.00 0.00 88 1014.0
20260510121256 60 280 3.0 5.0 0.00 0.00 0.00 88 1013.7
20260510120753 60 270 1.0 2.0 0.00 0.00 0.00 87 1013.6
20260510120249 60 253 1.0 2.0 0.00 0.00 0.00 88 1013.5
20260510115745 59 256 0.0 1.0 0.00 0.00 0.00 89 1013.8
20260510115243 59 262 1.0 1.0 0.00 0.00 0.00 89 1013.6
20260510114738 59 248 0.0 1.0 0.00 0.00 0.00 89 1013.5
20260510114236 59 265 1.0 2.0 0.00 0.00 0.00 89 1013.3
20260510113731 59 291 2.0 2.0 0.00 0.00 0.00 89 1013.4
20260510113228 58 247 0.0 1.0 0.00 0.00 0.00 90 1013.3
20260510112724 58 267 1.0 1.0 0.00 0.00 0.00 90 1013.1
20260510112221 58 274 2.0 2.0 0.00 0.00 0.00 90 1012.8
20260510111717 58 246 2.0 2.0 0.00 0.00 0.00 91 1012.8
20260510111214 57 287 3.0 3.0 0.00 0.00 0.00 94 1012.5
20260510110708 56 270 0.0 0.0 0.00 0.00 0.00 95 1012.5
20260510110207 56 267 0.0 0.0 0.00 0.00 0.00 96 1012.3
20260510105706 55 248 0.0 0.0 0.00 0.00 0.00 96 1012.4
20260510105201 55 246 0.0 0.0 0.00 0.00 0.00 96 1012.1
20260510104658 55 239 0.0 0.0 0.00 0.00 0.00 96 1012.1
20260510104155 55 243 0.0 0.0 0.00 0.00 0.00 96 1012.1
20260510103652 54 265 0.0 0.0 0.00 0.00 0.00 96 1012.2
20260510103148 54 266 0.0 0.0 0.00 0.00 0.00 96 1012.1
20260510102643 54 244 0.0 0.0 0.00 0.00 0.00 96 1012.3
20260510102139 55 243 0.0 0.0 0.00 0.00 0.00 95 1011.9
20260510101637 55 244 0.0 0.0 0.00 0.00 0.00 95 1011.8
20260510101135 54 232 0.0 0.0 0.00 0.00 0.00 95 1012.1
20260510100631 55 267 0.0 0.0 0.00 0.00 0.00 94 1011.5
20260510100128 55 264 0.0 0.0 0.00 0.00 0.00 94 1011.6
20260510095624 55 249 0.0 0.0 0.00 0.00 0.00 94 1011.6
20260510095119 55 257 0.0 0.0 0.00 0.00 0.00 94 1011.6
20260510094618 55 231 0.0 0.0 0.00 0.00 0.00 94 1011.3
20260510094114 55 277 0.0 0.0 0.00 0.00 0.00 94 1011.4
20260510093610 55 277 0.0 0.0 0.00 0.00 0.00 95 1011.3
20260510093107 55 276 0.0 0.0 0.00 0.00 0.00 94 1011.1
20260510092604 55 277 0.0 0.0 0.00 0.00 0.00 95 1011.2
20260510092103 55 277 0.0 0.0 0.00 0.00 0.00 95 1011.1
20260510091600 55 260 0.0 0.0 0.00 0.00 0.00 94 1011.1
20260510091056 55 251 0.0 0.0 0.00 0.00 0.00 94 1011.1
20260510090554 55 260 0.0 0.0 0.00 0.00 0.00 94 1010.8
20260510090049 56 246 0.0 0.0 0.00 0.00 0.00 93 1010.9
20260510085544 56 267 0.0 0.0 0.00 0.00 0.00 93 1010.9
20260510085040 56 268 0.0 0.0 0.00 0.00 0.00 93 1011.1
20260510084537 57 268 1.0 1.0 0.00 0.00 0.00 92 1011.0
20260510084034 57 268 0.0 0.0 0.00 0.00 0.00 91 1011.0
20260510083531 57 268 0.0 0.0 0.00 0.00 0.00 91 1010.9
20260510083027 57 261 3.0 3.0 0.00 0.00 0.00 91 1011.0
20260510082524 57 218 1.0 1.0 0.00 0.00 0.00 91 1010.9
20260510082019 57 249 0.0 1.0 0.00 0.00 0.00 92 1011.1
20260510081514 57 250 1.0 1.0 0.00 0.00 0.00 92 1011.0
20260510081010 57 264 0.0 0.0 0.00 0.00 0.00 91 1011.1
20260510080509 57 246 0.0 1.0 0.00 0.00 0.00 91 1011.2
20260510080006 57 267 1.0 2.0 0.00 0.00 0.00 91 1011.1
20260510075504 57 266 0.0 0.0 0.00 0.00 0.00 91 1010.8
20260510075000 57 234 0.0 1.0 0.00 0.00 0.00 91 1010.7
20260510074458 57 251 0.0 1.0 0.00 0.00 0.00 91 1010.6
20260510073953 57 251 3.0 3.0 0.00 0.00 0.00 91 1010.7
20260510073449 58 229 1.0 1.0 0.00 0.00 0.00 90 1010.5
20260510072946 57 252 2.0 2.0 0.00 0.00 0.00 91 1010.7
20260510072443 57 228 2.0 2.0 0.00 0.00 0.00 91 1010.7
20260510071938 57 258 1.0 1.0 0.00 0.00 0.00 91 1010.6
20260510071435 57 225 0.0 0.0 0.00 0.00 0.00 91 1010.8
20260510070933 57 266 0.0 0.0 0.00 0.00 0.00 91 1010.7
20260510070430 57 253 1.0 1.0 0.00 0.00 0.00 91 1010.8
20260510065926 57 277 0.0 0.0 0.00 0.00 0.00 91 1010.6
20260510065423 57 277 0.0 1.0 0.00 0.00 0.00 91 1010.8
20260510064919 57 277 1.0 2.0 0.00 0.00 0.00 91 1010.6
20260510064417 57 277 0.0 1.0 0.00 0.00 0.00 91 1010.6
20260510063913 58 277 1.0 1.0 0.00 0.00 0.00 90 1010.5
20260510063409 57 275 0.0 0.0 0.00 0.00 0.00 90 1010.8
20260510062907 58 275 0.0 0.0 0.00 0.00 0.00 90 1010.3
20260510062402 58 275 0.0 0.0 0.00 0.00 0.00 90 1010.7
20260510061857 58 276 0.0 0.0 0.00 0.00 0.00 90 1010.8
20260510061354 57 270 0.0 1.0 0.00 0.00 0.00 91 1010.9
20260510060850 58 272 0.0 0.0 0.00 0.00 0.00 90 1010.7
20260510060347 58 270 0.0 0.0 0.00 0.00 0.00 90 1010.6
20260510055843 58 289 1.0 1.0 0.00 0.00 0.00 90 1010.3
20260510055342 58 268 0.0 1.0 0.00 0.00 0.00 89 1010.6
20260510054836 58 274 0.0 1.0 0.00 0.00 0.00 89 1010.6
20260510054332 59 274 0.0 1.0 0.00 0.00 0.00 87 1010.9
20260510053827 59 274 0.0 1.0 0.00 0.00 0.00 87 1010.7
20260510053322 60 274 1.0 1.0 0.00 0.00 0.00 86 1010.7
20260510052819 60 260 1.0 1.0 0.00 0.00 0.00 86 1010.7
20260510052316 60 274 0.0 1.0 0.00 0.00 0.00 85 1010.8
20260510051812 61 276 0.0 0.0 0.00 0.00 0.00 84 1011.0
20260510051309 61 240 1.0 1.0 0.00 0.00 0.00 83 1010.9
20260510050806 61 297 1.0 3.0 0.00 0.00 0.00 83 1010.7
20260510050303 62 270 3.0 5.0 0.00 0.00 0.00 82 1010.8
20260510045800 62 254 1.0 1.0 0.00 0.00 0.00 82 1010.8
20260510045256 62 245 2.0 2.0 0.00 0.00 0.00 82 1011.0
20260510044754 62 252 3.0 3.0 0.00 0.00 0.00 82 1011.1
20260510044250 62 232 4.0 5.0 0.00 0.00 0.00 82 1010.7
20260510043746 62 260 2.0 2.0 0.00 0.00 0.00 82 1010.7
20260510043242 62 255 2.0 2.0 0.00 0.00 0.00 81 1010.6
20260510042740 62 268 4.0 5.0 0.00 0.00 0.00 81 1010.8
20260510042235 62 225 2.0 3.0 0.00 0.00 0.00 81 1010.6
20260510041732 63 238 3.0 3.0 0.00 0.00 0.00 80 1010.8
20260510041230 63 229 4.0 5.0 0.00 0.00 0.00 80 1010.7
20260510040726 63 262 4.0 5.0 0.00 0.00 0.00 80 1010.7
20260510040223 63 256 4.0 5.0 0.00 0.00 0.00 80 1010.6
20260510035719 63 243 3.0 3.0 0.00 0.15 0.15 80 1010.6
20260510035215 63 258 2.0 2.0 0.00 0.15 0.15 80 1010.8
20260510034711 63 239 2.0 2.0 0.00 0.15 0.15 80 1010.7
20260510034209 63 230 0.0 1.0 0.00 0.15 0.15 80 1010.7
20260510033704 63 278 4.0 6.0 0.00 0.15 0.15 80 1010.8
20260510033203 63 227 3.0 5.0 0.00 0.15 0.15 80 1010.6
20260510032653 63 229 2.0 2.0 0.00 0.15 0.15 80 1010.6
20260510032148 62 240 1.0 1.0 0.00 0.15 0.15 80 1010.6
20260510031643 62 278 3.0 3.0 0.00 0.15 0.15 80 1010.4
20260510031140 62 238 1.0 2.0 0.00 0.15 0.15 80 1010.5
20260510030634 62 244 1.0 1.0 0.00 0.15 0.15 80 1010.4
20260510030132 63 218 1.0 1.0 0.00 0.15 0.15 80 1010.3
20260510025629 63 198 2.0 2.0 0.00 0.15 0.15 80 1010.2
20260510025126 63 242 1.0 1.0 0.00 0.15 0.15 79 1010.3
20260510024623 63 243 3.0 3.0 0.00 0.15 0.15 78 1010.4
20260510024119 63 246 1.0 1.0 0.00 0.15 0.15 78 1010.2
20260510023615 63 196 1.0 1.0 0.00 0.15 0.15 78 1010.2
20260510023113 63 244 1.0 1.0 0.00 0.15 0.15 78 1010.3
20260510022613 63 233 0.0 0.0 0.00 0.15 0.15 78 1010.1
20260510022108 63 220 0.0 1.0 0.00 0.15 0.15 77 1009.9
20260510021605 63 247 1.0 1.0 0.00 0.15 0.15 78 1010.3
20260510021102 64 232 0.0 1.0 0.00 0.15 0.15 77 1010.1
20260510020555 64 260 2.0 3.0 0.00 0.15 0.15 77 1010.1
20260510020051 64 223 1.0 1.0 0.00 0.15 0.15 76 1009.6
20260510015547 64 228 1.0 1.0 0.00 0.15 0.15 76 1010.0
20260510015043 64 248 1.0 1.0 0.00 0.15 0.15 76 1009.6
20260510014534 64 213 1.0 2.0 0.00 0.15 0.15 75 1009.6
20260510014032 64 252 1.0 2.0 0.00 0.15 0.15 75 1009.5
20260510013526 65 212 3.0 5.0 0.00 0.15 0.15 75 1009.6
20260510013022 65 228 1.0 1.0 0.00 0.15 0.15 75 1009.2
20260510012522 65 234 0.0 1.0 0.00 0.15 0.15 74 1009.1
20260510012018 65 212 1.0 1.0 0.00 0.15 0.15 74 1009.0
20260510011518 65 242 2.0 2.0 0.00 0.15 0.15 73 1009.1
20260510011014 65 233 0.0 1.0 0.00 0.15 0.15 73 1009.0
20260510010511 66 192 1.0 1.0 0.00 0.15 0.15 72 1009.0
20260510010008 66 229 0.0 0.0 0.00 0.15 0.15 72 1009.0
20260510005504 66 228 1.0 1.0 0.00 0.15 0.15 72 1008.6
20260510005002 66 240 1.0 1.0 0.00 0.15 0.15 72 1008.8
20260510004459 66 223 0.0 0.0 0.00 0.15 0.15 72 1008.7
20260510003957 66 213 0.0 1.0 0.00 0.15 0.15 71 1008.6
20260510003453 66 216 0.0 1.0 0.00 0.15 0.15 70 1008.4
20260510002948 67 238 0.0 1.0 0.00 0.15 0.15 70 1008.5
20260510002444 67 226 0.0 0.0 0.00 0.15 0.15 69 1008.4
20260510001941 68 236 1.0 2.0 0.00 0.15 0.15 68 1008.4
20260510001438 68 249 3.0 5.0 0.00 0.15 0.15 67 1008.2
20260510000936 68 200 3.0 5.0 0.00 0.15 0.15 67 1008.4
20260510000433 68 235 1.0 1.0 0.00 0.15 0.15 66 1008.4
20260509235929 69 225 1.0 1.0 0.00 0.15 0.15 65 1008.3
20260509235426 69 231 2.0 2.0 0.00 0.15 0.15 65 1008.2
20260509234922 69 212 1.0 2.0 0.00 0.15 0.15 64 1008.2
20260509234419 69 263 3.0 3.0 0.00 0.15 0.15 64 1008.3
20260509233917 70 229 3.0 3.0 0.00 0.15 0.15 63 1008.0
20260509233414 70 243 2.0 2.0 0.00 0.15 0.15 63 1008.2
20260509232910 70 249 6.0 7.0 0.00 0.15 0.15 62 1007.9
20260509232403 71 245 2.0 3.0 0.00 0.15 0.15 61 1008.1
20260509231858 71 143 3.0 5.0 0.00 0.15 0.15 60 1008.0
20260509231355 72 254 4.0 5.0 0.00 0.15 0.15 60 1008.0
20260509230853 72 200 2.0 3.0 0.00 0.15 0.15 60 1007.8
20260509230350 72 259 2.0 2.0 0.00 0.15 0.15 60 1007.9
20260509225845 73 213 3.0 6.0 0.00 0.15 0.15 60 1007.8
20260509225342 72 246 2.0 3.0 0.00 0.15 0.15 59 1008.0
20260509224838 72 226 1.0 2.0 0.00 0.15 0.15 59 1008.2
20260509224334 72 260 5.0 6.0 0.00 0.15 0.15 58 1007.9
20260509223831 72 241 2.0 2.0 0.00 0.15 0.15 59 1008.2
20260509223327 72 250 2.0 2.0 0.00 0.15 0.15 60 1008.5
20260509222824 72 230 2.0 3.0 0.00 0.15 0.15 58 1008.3
20260509222320 72 240 2.0 2.0 0.00 0.15 0.15 58 1008.2
20260509221815 72 272 6.0 7.0 0.00 0.15 0.15 57 1008.5
20260509221313 73 229 3.0 5.0 0.00 0.15 0.15 57 1008.5
20260509220808 73 199 4.0 6.0 0.00 0.15 0.15 57 1008.4
20260509220305 73 187 10.0 17.0 0.00 0.15 0.15 57 1008.3
20260509215800 73 259 3.0 6.0 0.00 0.15 0.15 59 1008.4
20260509215257 72 225 5.0 7.0 0.00 0.15 0.15 59 1008.6
20260509214754 73 253 4.0 5.0 0.00 0.15 0.15 58 1008.5
20260509214251 73 230 5.0 9.0 0.00 0.15 0.15 57 1008.5
20260509213748 72 242 3.0 3.0 0.00 0.15 0.15 60 1008.6
20260509213244 73 256 2.0 3.0 0.00 0.15 0.15 60 1008.3
20260509212741 71 188 2.0 5.0 0.00 0.15 0.15 60 1008.5
20260509212239 71 254 3.0 5.0 0.00 0.15 0.15 59 1008.5
20260509211734 71 212 2.0 3.0 0.00 0.15 0.15 61 1008.6
20260509211231 71 264 4.0 5.0 0.00 0.15 0.15 61 1008.4
20260509210727 71 281 5.0 6.0 0.00 0.15 0.15 61 1008.7
20260509210225 71 236 5.0 7.0 0.00 0.15 0.15 61 1008.2
20260509205725 72 256 6.0 8.0 0.00 0.15 0.15 59 1008.8
20260509205224 72 257 8.0 9.0 0.00 0.15 0.15 59 1008.6